User: anonymous   Login
Location: Libas
(9.8833°N, 125.9833°E)
Time: 12:56:28
(UTC+00:00)
Language:

IUS-18 SRM-1 - Orbit

View from above orbital plane
View from above orbital plane
View from above satellite
View from above satellite

Ground track
Ground track

The orbit data is extracted from the following two-line orbital elements,

1 19970U 89033C   21018.69000889  .00000272  00000-0  13589-3 0  9991
2 19970  27.9410 262.1416 6021032 292.4999  16.1991  3.98552438424746
Epoch (UTC): 18 January 2021 16:33:36
Eccentricity: 0.6021032
inclination: 27.9410°
perigee height: 308 km
apogee height: 20543 km
right ascension of ascending node: 262.1416°
argument of perigee: 292.4999°
revolutions per day: 3.98552438
mean anomaly at epoch: 16.1991°
orbit number at epoch: 42474

The dashed part of the orbit path shows where the satellite is in the earth's shadow,  

DLR